Satellite-Ground Cal/Val Region Overpasses Predictions

Prediction of Satellite NPP Overpassing Cal/Val Region: PacNW

Region Location: (Latitude: 10.00, Longitude: 139.50) to (Latitude: 22.70, Longitude: 165.60).

Table of predicted overpasses for the next 14.0 days since TLE Epoch: 2/21/2013
Interval Starting Time Starting Location Ending Time Ending Location
1 02/22/2013 02:37:51 ( 10.00, 159.85) 02/22/2013 02:41:27 ( 22.68, 156.83)
2 02/22/2013 15:09:45 ( 22.69, 157.08) 02/22/2013 15:13:21 ( 10.01, 154.06)
3 02/23/2013 02:18:50 ( 10.02, 164.60) 02/23/2013 02:22:26 ( 22.70, 161.58)
4 02/23/2013 14:50:44 ( 22.67, 161.83) 02/23/2013 14:54:19 ( 10.05, 158.83)
5 02/24/2013 03:41:20 ( 10.03, 143.97) 02/24/2013 03:44:55 ( 22.66, 140.97)
6 02/24/2013 14:32:53 ( 18.61, 165.59) 02/24/2013 14:35:19 ( 10.04, 163.58)
7 02/24/2013 16:13:14 ( 22.66, 141.21) 02/24/2013 16:15:13 ( 15.68, 139.51)
8 02/25/2013 03:22:19 ( 10.05, 148.72) 02/25/2013 03:25:54 ( 22.67, 145.72)
9 02/25/2013 15:54:13 ( 22.64, 145.96) 02/25/2013 15:57:48 ( 10.03, 142.96)
10 02/26/2013 03:03:18 ( 10.00, 153.49) 02/26/2013 03:06:54 ( 22.69, 150.47)
11 02/26/2013 15:35:12 ( 22.69, 150.72) 02/26/2013 15:38:48 ( 10.01, 147.71)
12 02/27/2013 02:44:17 ( 10.02, 158.24) 02/27/2013 02:47:53 ( 22.70, 155.22)
13 02/27/2013 15:16:11 ( 22.68, 155.48) 02/27/2013 15:19:47 ( 10.00, 152.46)
14 02/28/2013 02:25:17 ( 10.03, 162.99) 02/28/2013 02:28:52 ( 22.65, 159.98)
15 02/28/2013 14:57:11 ( 22.67, 160.23) 02/28/2013 15:00:46 ( 10.05, 157.22)
16 03/01/2013 02:08:53 ( 19.21, 165.59) 03/01/2013 02:09:52 ( 22.67, 164.73)
17 03/01/2013 03:47:46 ( 10.04, 142.36) 03/01/2013 03:51:11 ( 22.08, 139.51)
18 03/01/2013 14:38:10 ( 22.65, 164.98) 03/01/2013 14:41:45 ( 10.04, 161.97)
19 03/01/2013 16:19:40 ( 22.65, 139.60) 03/01/2013 16:19:46 ( 22.30, 139.51)
20 03/02/2013 03:28:46 ( 10.06, 147.12) 03/02/2013 03:32:21 ( 22.68, 144.11)
21 03/02/2013 16:00:40 ( 22.64, 144.35) 03/02/2013 16:04:15 ( 10.03, 141.35)
22 03/03/2013 03:09:45 ( 10.01, 151.88) 03/03/2013 03:13:21 ( 22.69, 148.86)
23 03/03/2013 15:41:38 ( 22.69, 149.12) 03/03/2013 15:45:14 ( 10.02, 146.10)
24 03/04/2013 02:50:44 ( 10.02, 156.63) 03/04/2013 02:54:19 ( 22.64, 153.63)
25 03/04/2013 15:22:38 ( 22.68, 153.87) 03/04/2013 15:26:14 ( 10.01, 150.85)
26 03/05/2013 02:31:44 ( 10.03, 161.38) 03/05/2013 02:35:19 ( 22.65, 158.38)
27 03/05/2013 15:03:37 ( 22.68, 158.62) 03/05/2013 15:07:12 ( 10.06, 155.62)
28 03/06/2013 02:13:23 ( 12.39, 165.59) 03/06/2013 02:16:18 ( 22.66, 163.13)
29 03/06/2013 03:54:13 ( 10.04, 140.76) 03/06/2013 03:55:45 ( 15.44, 139.51)
30 03/06/2013 14:44:37 ( 22.67, 163.37) 03/06/2013 14:48:12 ( 10.05, 160.37)
31 03/07/2013 03:35:13 ( 10.05, 145.51) 03/07/2013 03:38:48 ( 22.67, 142.51)
32 03/07/2013 14:28:36 ( 12.10, 165.59) 03/07/2013 14:29:11 ( 10.04, 165.12)


NCC Satellite Cal/Val Overpasses Prediction Service
